[[{"header":{"parameterUnit":"m.s-1","parameterCategory":2,"la1":30.2991,"la2":30.254,"lo1":-89.0895,"lo2":-89.0444,"dy":0.0017,"dx":0.0017,"nx":28,"ny":28,"refTime":"2024-06-28T03:00:00:Z","depth":"0","parameterNumber":2,"parameterNumberName":"U-component_of_CURRENTS"},"data":[0,0,0,0,0,0,0,0,0,0,0,0,0,0,0,0,0,0,0,0,0,0,0,0,0,0,0,0,0,0,0,0,0,0,0,0,0,0,0,0,0,0,0,0,0,0,0,0,0,0,0,0,0,0,0,0,0,0,0.1892,0.1893,0,0.1908,0.1908,0.1908,0.1857,0.1856,0.1856,0.1855,0.1844,0.1845,0.1845,0,0,0,0,0,0,0,0,0,0,0,0,0,0.1716,0.1719,0.1892,0.1893,0.1894,0.1909,0.1908,0.1907,0.1857,0.1856,0.1855,0.1855,0.1844,0.1845,0.1845,0,0,0,0,0,0,0,0,0,0,0,0,0,0.1761,0.1721,0.1892,0.1876,0.1876,0.1909,0.1908,0.1907,0.1858,0.1856,0.1855,0.1854,0.1844,0.1845,0.1845,0.1874,0,0,0.1847,0.1848,0,0,0,0,0,0,0,0,0.1759,0.1767,0.1878,0.1878,0.1877,0.1887,0.1843,0.1897,0.1858,0.1856,0.1855,0.1853,0.1862,0.1861,0.1856,0.1873,0.1873,0.1847,0.1848,0.1848,0.1848,0,0,0,0,0,0,0,0.1756,0.1765,0.189,0.1879,0.1879,0.1835,0.184,0.1852,0.1859,0.1856,0.1854,0.187,0.186,0.1855,0.1855,0.1872,0.1847,0.1848,0.1849,0.1849,0.1943,0.1945,0,0,0,0,0,0,0.1778,0.1763,0.189,0.1891,0.1823,0.184,0.1845,0.1878,0.1859,0.1858,0.1871,0.1867,0.1855,0.1855,0.1855,0.192,0.1848,0.1849,0.1849,0.1941,0.1943,0.1946,0,0,0,0,0,0,0.1774,0.1789,0.1889,0.1832,0.1843,0.1846,0.1882,0.1879,0.187,0.1872,0.1868,0.1865,0.1854,0.1854,0.1847,0.1918,0.1849,0.185,0.1938,0.1942,0.1945,0.203,0,0,0,0,0,0,0.1769,0.1788,0.1797,0.1835,0.1848,0.1883,0.1884,0.1881,0.1886,0.1881,0.1866,0.1864,0.1853,0.1846,0.1848,0.1918,0.185,0.1936,0.194,0.1944,0.2025,0.2036,0.2046,0,0,0,0,0,0.1763,0.1778,0.1797,0.1812,0.1868,0.1883,0.1883,0.1875,0.1887,0.1865,0.1864,0.1864,0.1874,0.1847,0.1849,0.1921,0.1934,0.1939,0.1943,0.202,0.2034,0.2045,0,0,0,0,0,0,0.1707,0.1777,0.1798,0.1835,0.185,0.1877,0.1869,0.188,0.1866,0.1869,0.1866,0.1863,0.191,0.1887,0.1858,0.1961,0.1916,0.1921,0.1974,0.1987,0.1997,0.1993,0.1851,0,0,0,0,0,0.1707,0.1737,0.1787,0.1815,0.1829,0.1855,0.1859,0.1864,0.1873,0.1865,0.1877,0.1895,0.1935,0.1929,0.1958,0.198,0.1983,0.2036,0.2047,0.2055,0.2055,0.2125,0.2142,0.1961,0.1961,0.1961,0,0,0.1713,0.174,0.1769,0.1804,0.1824,0.1857,0.1851,0.1866,0.1894,0.187,0.1907,0.1939,0.1954,0.2002,0.2021,0.1982,0.2107,0.2061,0.2069,0.2063,0.2132,0.2149,0.2165,0.1964,0.1964,0.1963,0,0,0.173,0.175,0.1785,0.1808,0.1838,0.1843,0.1852,0.1894,0.1899,0.1932,0.1961,0.2011,0.2041,0.2079,0.2099,0.2176,0.2179,0.2205,0.223,0.23,0.2315,0.2329,0.2345,0.236,0.2186,0.2186,0.2186,0,0.1734,0.1771,0.1789,0.183,0.1843,0.1847,0.1878,0.1899,0.1935,0.1941,0.1947,0.2062,0.2087,0.2164,0.2205,0.2206,0.222,0.2182,0.2314,0.2328,0.234,0.2353,0.2368,0.2191,0.219,0.219,0.2189,0,0.1793,0.1812,0.1829,0.1882,0.1896,0.1906,0.1953,0.1958,0.1975,0.2008,0.2087,0.2138,0.2189,0.2245,0.2249,0.2367,0.2342,0.234,0.2282,0.2364,0.2372,0.2386,0.2198,0.2196,0.2194,0.2193,0,0,0.1812,0.1859,0.1864,0.1866,0.191,0.1918,0.1961,0.1971,0.1977,0.2064,0.21,0.2234,0.2268,0.2295,0.2343,0.2414,0.2534,0.2415,0.2416,0.2428,0.2657,0.2557,0.2561,0.2561,0.2565,0.2567,0.2623,0,0.183,0.1872,0.1903,0.1926,0.1931,0.1947,0.1971,0.2,0.201,0.2047,0.2148,0.2213,0.2286,0.2318,0.2418,0.2517,0.2576,0.2516,0.2577,0.2578,0.2478,0.2577,0.2445,0.2477,0.2636,0.2638,0.264,0,0.1853,0.186,0.1883,0.1882,0.1892,0.1919,0.1894,0.1928,0.1984,0.2004,0.2098,0.2168,0.2323,0.2357,0.2572,0.2532,0.2601,0.2668,0.2671,0.2555,0.2505,0.2424,0.2496,0.2444,0.2661,0.2659,0.2658,0,0.1765,0.1825,0.1807,0.1828,0.186,0.1861,0.1874,0.1907,0.1931,0.1982,0.201,0.2172,0.2257,0.2417,0.2576,0.2582,0.2775,0.2785,0.2749,0.274,0.2625,0.26,0.2649,0.291,0.291,0.291,0.291,0,0.1704,0.1705,0.1768,0.1754,0.1753,0.1806,0.1805,0.1815,0.1878,0.192,0.2001,0.2063,0.2284,0.2417,0.2564,0.2699,0.2766,0.277,0.2765,0.2647,0.2625,0.2569,0.2535,0.2912,0.2911,0.2911,0.2911,0,0.1604,0.1638,0.1635,0.1675,0.17,0.1705,0.1796,0.18,0.1838,0.1898,0.1928,0.2024,0.2153,0.233,0.2547,0.265,0.2702,0.2804,0.2621,0.2593,0.2502,0.2475,0.2328,0.2295,0.2788,0.2786,0.2784,0,0.1576,0.1555,0.1582,0.1603,0.1627,0.1674,0.1705,0.1771,0.1798,0.188,0.1906,0.1998,0.2064,0.2293,0.2447,0.262,0.2574,0.2589,0.2587,0.2488,0.2458,0.2304,0.2278,0.2468,0.2464,0.2461,0.2458,0,0.1545,0.1536,0.1523,0.1547,0.1586,0.1628,0.1685,0.1699,0.1777,0.1812,0.1849,0.1898,0.2037,0.2117,0.2281,0.2397,0.2418,0.2523,0.2498,0.2274,0.2035,0.2001,0.2406,0.2429,0.2432,0.2434,0.2435,0.2437,0.1539,0.1533,0.1518,0.1526,0.1559,0.1566,0.157,0.1624,0.1652,0.1663,0.1759,0.1742,0.1846,0.2029,0.2146,0.2197,0.219,0.2188,0.2182,0.2049,0.1954,0.226,0.2226,0.2228,0.2229,0.223,0.2232,0,0.1562,0.1535,0.1536,0.1519,0.15,0.1535,0.1549,0.153,0.1519,0.1523,0.1547,0.1537,0.1605,0.1727,0.1886,0.1898,0.1846,0.1852,0.1654,0.1673,0.2028,0.1956,0.1767,0.1767,0.1767,0.1767,0.1768,0.1768,0.1574,0.1564,0.1536,0.1481,0.1454,0.1426,0.1402,0.1368,0.1347,0.1262,0.12,0.1201,0.1343,0.1563,0.1665,0.167,0.1538,0.1363,0.1447,0.1746,0.1778,0.1808,0.1736,0.1504,0.1504,0.1,0.0996,0.0993]},{"header":{"parameterUnit":"m.s-1","parameterCategory":2,"la1":30.2991,"la2":30.254,"lo1":-89.0895,"lo2":-89.0444,"dy":0.0017,"dx":0.0017,"nx":28,"ny":28,"refTime":"2024-06-28T03:00:00:Z","depth":"0","parameterNumber":3,"parameterNumberName":"V-component_of_CURRENTS"},"data":[0,0,0,0,0,0,0,0,0,0,0,0,0,0,0,0,0,0,0,0,0,0,0,0,0,0,0,0,0,0,0,0,0,0,0,0,0,0,0,0,0,0,0,0,0,0,0,0,0,0,0,0,0,0,0,0,0,0,0.0861,0.0862,0,0.0961,0.0962,0.0963,0.0996,0.0995,0.0995,0.0994,0.0881,0.0878,0.0876,0,0,0,0,0,0,0,0,0,0,0,0,0,0.0755,0.0756,0.0861,0.0862,0.0864,0.096,0.0962,0.0963,0.0996,0.0995,0.0995,0.0994,0.0882,0.0879,0.0875,0,0,0,0,0,0,0,0,0,0,0,0,0,0.0823,0.0757,0.0861,0.0891,0.0895,0.096,0.0962,0.0964,0.0996,0.0995,0.0995,0.0994,0.0883,0.0879,0.0875,0.0866,0,0,0.0863,0.0862,0,0,0,0,0,0,0,0,0.0819,0.0827,0.0885,0.0889,0.0893,0.0964,0.0883,0.092,0.0996,0.0958,0.0994,0.0994,0.0889,0.0885,0.0909,0.0861,0.0856,0.0863,0.0861,0.0859,0.0858,0,0,0,0,0,0,0,0.0814,0.0823,0.0901,0.0887,0.0891,0.0918,0.0927,0.0891,0.0923,0.0962,0.0964,0.0974,0.0889,0.0913,0.0906,0.0854,0.0863,0.086,0.0857,0.0856,0.0805,0.0806,0,0,0,0,0,0,0.0799,0.0819,0.0898,0.0904,0.0853,0.092,0.093,0.0943,0.0928,0.0927,0.0975,0.0975,0.092,0.0911,0.0902,0.0919,0.0859,0.0855,0.0853,0.0804,0.0806,0.0807,0,0,0,0,0,0,0.0796,0.0805,0.0894,0.0863,0.0876,0.0923,0.0937,0.0945,0.0969,0.0941,0.0935,0.0989,0.0919,0.0907,0.0855,0.0913,0.0854,0.085,0.0803,0.0805,0.0806,0.0933,0,0,0,0,0,0,0.0793,0.0803,0.0813,0.0862,0.0877,0.0939,0.0938,0.0948,0.0975,0.0977,0.095,0.094,0.0918,0.086,0.0851,0.0906,0.0847,0.0802,0.0804,0.0806,0.0928,0.0939,0.0948,0,0,0,0,0,0.0788,0.0809,0.0813,0.0823,0.0887,0.094,0.0951,0.0982,0.0977,0.0997,0.0957,0.0941,0.0867,0.0857,0.0845,0.0902,0.0801,0.0803,0.0806,0.0923,0.0937,0.0948,0,0,0,0,0,0,0.0779,0.0816,0.0821,0.0855,0.0893,0.0945,0.0967,0.0983,0.0977,0.0959,0.0929,0.0916,0.0906,0.0868,0.0858,0.0891,0.0841,0.0841,0.0935,0.0947,0.0957,0.0962,0.0844,0,0,0,0,0,0.0777,0.0802,0.0839,0.0872,0.0881,0.0921,0.0946,0.0963,0.0964,0.0965,0.0954,0.0926,0.0911,0.0894,0.0874,0.0867,0.083,0.0902,0.0912,0.0921,0.0916,0.0886,0.0893,0.0814,0.0814,0.0814,0,0,0.0789,0.081,0.0828,0.0871,0.0897,0.0927,0.0935,0.0968,0.1,0.0944,0.0972,0.0954,0.0914,0.0927,0.0921,0.0897,0.0931,0.0924,0.0933,0.0922,0.0889,0.0897,0.0904,0.0815,0.0815,0.0815,0,0,0.0804,0.0832,0.084,0.0876,0.0907,0.0936,0.0942,0.0988,0.1012,0.1026,0.1006,0.1012,0.0988,0.0995,0.0986,0.1029,0.0986,0.1032,0.1089,0.1062,0.1068,0.1073,0.1069,0.1073,0.1039,0.1039,0.104,0,0.0795,0.0824,0.0856,0.0874,0.0906,0.0936,0.0955,0.0996,0.1028,0.104,0.1039,0.1047,0.1032,0.1047,0.1083,0.1059,0.1026,0.1053,0.1077,0.108,0.1083,0.1077,0.108,0.1046,0.1045,0.1044,0.1044,0,0.0823,0.0841,0.0854,0.0884,0.0929,0.0955,0.1005,0.1046,0.1074,0.1107,0.1138,0.1134,0.114,0.1162,0.1138,0.117,0.1137,0.1095,0.105,0.1099,0.109,0.109,0.1055,0.1053,0.1051,0.1049,0,0,0.0807,0.0848,0.0857,0.0877,0.0931,0.098,0.1027,0.108,0.1118,0.1165,0.1214,0.1241,0.1251,0.124,0.1235,0.1229,0.1261,0.118,0.1175,0.1185,0.1206,0.1187,0.1184,0.1211,0.1211,0.1211,0.1204,0,0.0802,0.0832,0.0859,0.0919,0.0945,0.0996,0.1052,0.1114,0.1159,0.1222,0.1245,0.1277,0.1276,0.129,0.1294,0.1264,0.126,0.1267,0.1147,0.1144,0.1128,0.1183,0.1251,0.1249,0.1204,0.1204,0.1204,0,0.0815,0.0843,0.0867,0.0943,0.0958,0.1006,0.1106,0.1155,0.1231,0.1258,0.1298,0.1312,0.1353,0.1329,0.1313,0.131,0.127,0.1241,0.1238,0.1168,0.1123,0.1183,0.1249,0.1192,0.1203,0.1203,0.1203,0,0.0806,0.086,0.0878,0.0908,0.0986,0.1024,0.1086,0.1169,0.1223,0.128,0.1315,0.1344,0.1354,0.1331,0.1308,0.13,0.1264,0.124,0.1182,0.1181,0.1188,0.1187,0.1188,0.1198,0.1198,0.1198,0.1198,0,0.0786,0.0817,0.0887,0.0902,0.0967,0.1046,0.1124,0.1161,0.1257,0.1326,0.1336,0.138,0.1342,0.1333,0.1315,0.1265,0.1268,0.1202,0.1176,0.1238,0.1241,0.1146,0.1118,0.1198,0.1198,0.1198,0.1198,0,0.0748,0.0774,0.081,0.0902,0.0941,0.1,0.1143,0.1214,0.1277,0.1368,0.1386,0.1394,0.1346,0.1311,0.1249,0.1251,0.1237,0.1179,0.1269,0.1253,0.1155,0.1133,0.1115,0.1261,0.114,0.1139,0.1139,0,0.0719,0.0738,0.0801,0.0842,0.0875,0.0996,0.1077,0.1192,0.1275,0.1393,0.1428,0.1391,0.141,0.1321,0.1249,0.1196,0.1176,0.1216,0.1214,0.1169,0.1124,0.1126,0.1256,0.1295,0.1295,0.1296,0.1297,0,0.0705,0.0711,0.0733,0.0819,0.09,0.0998,0.1134,0.12,0.1349,0.1438,0.1527,0.1561,0.1445,0.1402,0.1277,0.125,0.1275,0.1225,0.1157,0.1231,0.1255,0.1378,0.1289,0.1303,0.1302,0.1302,0.1301,0.1301,0.069,0.0705,0.0755,0.0828,0.092,0.1023,0.1114,0.1256,0.1398,0.1548,0.1593,0.1638,0.157,0.1396,0.1352,0.1235,0.1259,0.1217,0.1194,0.1198,0.1341,0.1269,0.1253,0.1253,0.1252,0.1251,0.1251,0,0.0731,0.0751,0.0802,0.0888,0.098,0.1032,0.1179,0.1287,0.1444,0.1546,0.1666,0.1691,0.1584,0.1446,0.1308,0.1251,0.1349,0.1178,0.1211,0.1356,0.1259,0.1266,0.1278,0.1278,0.1278,0.1278,0.1278,0.1278,0.0742,0.0797,0.0814,0.0951,0.1016,0.1161,0.123,0.136,0.1461,0.1607,0.1661,0.1735,0.1692,0.131,0.1152,0.1159,0.1238,0.1144,0.1226,0.1102,0.1105,0.1107,0.1105,0.1084,0.1084,0.1436,0.1437,0.1439]}],[{"header":{"parameterUnit":"m.s-1","parameterCategory":2,"la1":30.2991,"la2":30.254,"lo1":-89.0895,"lo2":-89.0444,"dy":0.0017,"dx":0.0017,"nx":28,"ny":28,"refTime":"2024-06-28T03:00:00:Z","depth":"2","parameterNumber":2,"parameterNumberName":"U-component_of_CURRENTS"},"data":[0,0,0,0,0,0,0,0,0,0,0,0,0,0,0,0,0,0,0,0,0,0,0,0,0,0,0,0,0,0,0,0,0,0,0,0,0,0,0,0,0,0,0,0,0,0,0,0,0,0,0,0,0,0,0,0,0,0,0.0788,0.0786,0,0.0838,0.0841,0.0844,0.1017,0.1018,0.1019,0.1019,0.1087,0.1088,0.1089,0,0,0,0,0,0,0,0,0,0,0,0,0,0.1098,0.1092,0.0789,0.0786,0.0784,0.0837,0.0841,0.0845,0.1017,0.1018,0.1019,0.102,0.1087,0.1088,0.1089,0,0,0,0,0,0,0,0,0,0,0,0,0,0.1068,0.1091,0.0789,0.0851,0.0855,0.0836,0.0841,0.0846,0.1017,0.1018,0.1019,0.102,0.1086,0.1088,0.109,0.1075,0,0,0.1094,0.1095,0,0,0,0,0,0,0,0,0.1069,0.1061,0.0844,0.0846,0.085,0.0893,0.0973,0.0912,0.1016,0.0991,0.1019,0.1021,0.1001,0.1009,0.1064,0.1078,0.1081,0.1094,0.1095,0.1096,0.1097,0,0,0,0,0,0,0,0.1071,0.1061,0.0843,0.0841,0.0844,0.096,0.096,0.0966,0.1015,0.0993,0.0997,0.0949,0.1008,0.1062,0.1066,0.1082,0.1094,0.1096,0.1097,0.1097,0.1259,0.1262,0,0,0,0,0,0,0.098,0.106,0.084,0.084,0.0927,0.095,0.0951,0.0906,0.1015,0.1022,0.0947,0.0956,0.1059,0.1064,0.1069,0.116,0.1096,0.1098,0.1098,0.1256,0.126,0.1263,0,0,0,0,0,0,0.0987,0.0961,0.0838,0.0926,0.0914,0.0938,0.089,0.0905,0.0989,0.0973,0.0989,0.1013,0.106,0.1067,0.1136,0.1159,0.1098,0.11,0.1252,0.1257,0.1262,0.1274,0,0,0,0,0,0,0.0997,0.0964,0.0972,0.0918,0.0904,0.0765,0.0885,0.0904,0.0937,0.0952,0.1033,0.104,0.1062,0.1134,0.1137,0.116,0.1101,0.1248,0.1254,0.126,0.1269,0.1278,0.1287,0,0,0,0,0,0.1008,0.0945,0.0973,0.0947,0.089,0.0756,0.0763,0.0812,0.0939,0.0917,0.106,0.104,0.1176,0.1137,0.1141,0.1164,0.1245,0.1252,0.126,0.1265,0.1277,0.1286,0,0,0,0,0,0,0.1086,0.0952,0.0982,0.089,0.0808,0.0771,0.0773,0.0828,0.0936,0.1004,0.1072,0.1085,0.1167,0.1169,0.1125,0.1239,0.121,0.1219,0.1213,0.1224,0.1233,0.1177,0.1102,0,0,0,0,0,0.1097,0.1017,0.0908,0.0835,0.0803,0.0822,0.0813,0.0825,0.0863,0.0919,0.1001,0.111,0.1196,0.1212,0.1273,0.1305,0.1247,0.1332,0.1341,0.1348,0.1312,0.1266,0.1264,0.1288,0.1288,0.1288,0,0,0.107,0.1016,0.0955,0.0847,0.0835,0.0823,0.0829,0.0772,0.0833,0.0901,0.1076,0.1141,0.1223,0.1297,0.1329,0.1295,0.1315,0.1357,0.1362,0.1321,0.1273,0.1269,0.1266,0.1293,0.1292,0.1292,0,0,0.1019,0.0969,0.0924,0.087,0.0804,0.0811,0.0794,0.0788,0.0857,0.0963,0.1078,0.1134,0.1284,0.1309,0.1358,0.1436,0.1381,0.1495,0.146,0.1418,0.1413,0.1407,0.1324,0.1311,0.1475,0.1475,0.1475,0,0.1042,0.0973,0.0881,0.0872,0.0848,0.0821,0.0815,0.0867,0.0911,0.0977,0.1016,0.1238,0.1282,0.1353,0.141,0.1442,0.1416,0.1407,0.1419,0.1413,0.1407,0.1323,0.1308,0.1476,0.1476,0.1476,0.1476,0,0.0967,0.0961,0.0917,0.093,0.0897,0.0832,0.0848,0.0927,0.1043,0.1087,0.1183,0.1222,0.1329,0.1364,0.1429,0.1429,0.1423,0.1447,0.1368,0.1404,0.1315,0.13,0.1478,0.1478,0.1477,0.1477,0,0,0.0882,0.0876,0.0873,0.0895,0.0916,0.0839,0.0998,0.1043,0.1153,0.1191,0.1253,0.1378,0.1355,0.1403,0.1419,0.1365,0.131,0.14,0.1397,0.1272,0.1201,0.1152,0.1129,0.1357,0.1355,0.1353,0.115,0,0.0877,0.0842,0.0885,0.0897,0.0862,0.0954,0.1085,0.1149,0.1245,0.1299,0.1271,0.1348,0.1378,0.1411,0.1355,0.1336,0.1275,0.1361,0.1223,0.1217,0.1132,0.1111,0.1047,0.0858,0.1134,0.1131,0.1129,0,0.0824,0.0789,0.0809,0.0863,0.0871,0.0952,0.1106,0.1193,0.1305,0.1381,0.1393,0.1391,0.1321,0.1332,0.1214,0.1286,0.1253,0.12,0.1192,0.1119,0.1139,0.0875,0.0819,0.1102,0.1104,0.1106,0.1108,0,0.075,0.0742,0.0759,0.0761,0.0857,0.0977,0.1055,0.1232,0.1331,0.1389,0.1448,0.1362,0.1354,0.1232,0.1195,0.1217,0.103,0.1038,0.0934,0.0929,0.0823,0.0813,0.0943,0.0943,0.0943,0.0944,0.0945,0,0.073,0.0737,0.0721,0.0745,0.0837,0.0871,0.1034,0.1209,0.1295,0.1342,0.1426,0.1402,0.1359,0.1276,0.1149,0.0985,0.1004,0.0888,0.0867,0.0831,0.0824,0.101,0.102,0.0936,0.0938,0.094,0.0941,0,0.0744,0.0746,0.0756,0.0797,0.0863,0.0907,0.1086,0.1135,0.1293,0.1335,0.1355,0.146,0.1377,0.1296,0.113,0.0997,0.0792,0.0758,0.0705,0.0681,0.0706,0.072,0.0519,0.0515,0.0512,0.051,0.0507,0,0.077,0.0768,0.0814,0.0854,0.0937,0.0986,0.1075,0.1198,0.1228,0.1321,0.1298,0.1342,0.1284,0.1044,0.086,0.0605,0.0744,0.0458,0.0468,0.0658,0.0659,0.0678,0.0697,0.0323,0.032,0.0317,0.0315,0,0.0826,0.0868,0.0868,0.0868,0.0948,0.1029,0.1105,0.1158,0.1212,0.1256,0.1242,0.1183,0.1022,0.0816,0.0642,0.0434,0.0467,0.0389,0.059,0.0467,0.0465,0.047,0.0495,0.0289,0.0292,0.0294,0.0295,0.0296,0.0851,0.0878,0.0836,0.0861,0.0894,0.0999,0.1091,0.108,0.1131,0.1095,0.1014,0.0896,0.0795,0.048,0.0336,0.0251,0.023,0.0182,0.0194,0.0208,0.0248,0.0244,0.003,0.0031,0.0032,0.0033,0.0033,0,0.0762,0.08,0.0821,0.0812,0.0753,0.0923,0.1034,0.1021,0.1016,0.093,0.0795,0.0546,0.0369,0.0363,0.0188,0.0029,0.0018,0.0029,0.0101,0.0119,0.0138,0.0182,-0.0057,-0.0056,-0.0055,-0.0054,0,0,0.0678,0.0667,0.0705,0.0635,0.069,0.0767,0.0901,0.094,0.0894,0.0706,0.0629,0.0312,0.0366,0.023,0.0091,0.0096,0.0122,0.0025,0.0078,0.0189,0.0212,0.0171,0.0251,0,0,0,0,0]},{"header":{"parameterUnit":"m.s-1","parameterCategory":2,"la1":30.2991,"la2":30.254,"lo1":-89.0895,"lo2":-89.0444,"dy":0.0017,"dx":0.0017,"nx":28,"ny":28,"refTime":"2024-06-28T03:00:00:Z","depth":"2","parameterNumber":3,"parameterNumberName":"V-component_of_CURRENTS"},"data":[0,0,0,0,0,0,0,0,0,0,0,0,0,0,0,0,0,0,0,0,0,0,0,0,0,0,0,0,0,0,0,0,0,0,0,0,0,0,0,0,0,0,0,0,0,0,0,0,0,0,0,0,0,0,0,0,0,0,-0.0095,-0.0098,0,-0.009,-0.0086,-0.0083,0.0087,0.0088,0.0089,0.0089,0.0116,0.0116,0.0116,0,0,0,0,0,0,0,0,0,0,0,0,0,0.0232,0.0227,-0.0094,-0.0098,-0.0101,-0.009,-0.0086,-0.0082,0.0087,0.0088,0.0089,0.009,0.0116,0.0116,0.0116,0,0,0,0,0,0,0,0,0,0,0,0,0,0.0185,0.0226,-0.0094,-0.0044,-0.0043,-0.0091,-0.0086,-0.0081,0.0087,0.0088,0.0089,0.009,0.0116,0.0116,0.0116,0.009,0,0,0.0116,0.0116,0,0,0,0,0,0,0,0,0.0188,0.0178,-0.0048,-0.0048,-0.0047,-0.0035,0.0036,-0.0036,0.0086,0.0079,0.0089,0.0091,0.0041,0.0047,0.0101,0.0092,0.0093,0.0116,0.0116,0.0116,0.0116,0,0,0,0,0,0,0,0.0191,0.0179,-0.0053,-0.0053,-0.0053,0.0039,0.0037,0.0028,0.0084,0.008,0.0082,0.002,0.0047,0.0101,0.0102,0.0093,0.0116,0.0116,0.0116,0.0116,0.0188,0.019,0,0,0,0,0,0,0.0099,0.0181,-0.0054,-0.0057,0.0032,0.0029,0.0028,-0.0008,0.0083,0.0087,0.0019,0.0027,0.01,0.0102,0.0103,0.0164,0.0116,0.0115,0.0115,0.0186,0.0188,0.019,0,0,0,0,0,0,0.0107,0.0079,-0.0054,0.0031,0.0015,0.0016,-0.0022,-0.001,0.0061,0.0029,0.0043,0.0072,0.0102,0.0103,0.0161,0.0162,0.0115,0.0115,0.0183,0.0186,0.0189,0.0228,0,0,0,0,0,0,0.0117,0.0084,0.0081,0.0024,0.0005,-0.0087,-0.0027,-0.0012,-0.0001,0.0013,0.0077,0.0082,0.0103,0.0162,0.0161,0.0161,0.0115,0.0181,0.0185,0.0188,0.0224,0.0231,0.0238,0,0,0,0,0,0.013,0.0086,0.0083,0.0054,-0.0015,-0.0093,-0.0086,-0.0054,-0.0,0.0025,0.0113,0.0081,0.0184,0.0165,0.0163,0.0162,0.0179,0.0184,0.0188,0.0221,0.023,0.0238,0,0,0,0,0,0,0.0242,0.0093,0.009,0.0012,-0.0043,-0.0078,-0.0093,-0.0051,0.0045,0.0068,0.0114,0.0124,0.017,0.0168,0.0146,0.0198,0.0171,0.0175,0.0196,0.0205,0.0212,0.0142,0.0115,0,0,0,0,0,0.0246,0.0177,0.0065,0.001,-0.0045,-0.0051,-0.0063,-0.0046,-0.0021,0.0027,0.0084,0.014,0.0183,0.0199,0.0229,0.0251,0.02,0.025,0.0257,0.0263,0.0209,0.0155,0.015,0.0205,0.0205,0.0205,0,0,0.0228,0.0173,0.0109,0.0027,-0.0017,-0.0034,-0.0043,-0.0095,-0.004,0.0002,0.0128,0.0159,0.0198,0.0251,0.0267,0.025,0.0235,0.0268,0.0273,0.0215,0.0159,0.0153,0.0147,0.0208,0.0207,0.0207,0,0,0.0196,0.0137,0.0075,0.0027,-0.0059,-0.0035,-0.0053,-0.0072,-0.0019,0.0067,0.0123,0.0144,0.0247,0.0252,0.0274,0.0321,0.0276,0.0357,0.0329,0.028,0.0273,0.0266,0.0243,0.0233,0.0358,0.0358,0.0358,0,0.0178,0.0139,0.0051,0.001,-0.0028,-0.003,-0.0058,-0.0004,0.0043,0.0096,0.0107,0.0223,0.0231,0.0265,0.0296,0.0322,0.0317,0.0295,0.0282,0.0274,0.0266,0.0244,0.0233,0.036,0.036,0.036,0.036,0,0.0126,0.0098,0.0042,0.0023,0.0,-0.0051,-0.0048,0.0061,0.0141,0.0174,0.0221,0.0215,0.0279,0.028,0.0308,0.027,0.0295,0.0298,0.0247,0.0262,0.024,0.0228,0.0364,0.0363,0.0362,0.0362,0,0,0.0042,0.0004,-0.0001,0.0004,-0.0007,-0.0031,0.0097,0.0175,0.0302,0.0291,0.0347,0.0354,0.0311,0.0324,0.0308,0.0228,0.0176,0.0245,0.0242,0.0196,0.0105,0.0198,0.0194,0.0201,0.0198,0.0195,0.0129,0,0.0027,0.0003,0.0002,0.002,-0.0014,0.006,0.0187,0.0276,0.039,0.0469,0.0357,0.0394,0.0338,0.0354,0.0257,0.0206,0.0139,0.0194,0.0116,0.0112,0.0171,0.0179,0.0118,0.0059,0.0116,0.0114,0.0112,0,0.0,-0.0,-0.0004,0.0054,0.0041,0.0113,0.0343,0.0425,0.0549,0.0619,0.0591,0.0529,0.0396,0.033,0.0165,0.0226,0.0157,0.0078,0.0076,0.0118,0.018,0.0046,0.0034,0.0091,0.0092,0.0094,0.0095,0,0.0037,0.0009,0.0042,0.0027,0.01,0.0202,0.0298,0.049,0.0583,0.0675,0.0736,0.0593,0.0524,0.0359,0.0218,0.0213,0.0022,0.0011,0.0013,0.0021,-0.0081,-0.0077,-0.0135,-0.0135,-0.0135,-0.0134,-0.0134,0,0.0048,0.0072,0.007,0.0078,0.0199,0.0198,0.0376,0.0563,0.0661,0.0725,0.074,0.0725,0.0531,0.0412,0.0239,0.0104,0.006,-0.002,-0.0004,-0.0055,-0.0048,-0.0072,-0.0064,-0.0137,-0.0136,-0.0136,-0.0135,0,0.0108,0.0102,0.012,0.0169,0.022,0.0293,0.0422,0.0544,0.0695,0.0774,0.0774,0.0813,0.069,0.0513,0.0282,0.0199,0.0017,-0.0012,-0.0037,-0.0023,0.0035,0.0047,-0.0044,-0.0042,-0.004,-0.0038,-0.0036,0,0.0123,0.0138,0.0186,0.0224,0.0263,0.0354,0.046,0.0595,0.0697,0.0803,0.0814,0.0769,0.0709,0.0478,0.0311,0.0092,0.0045,-0.0014,-0.0065,0.0013,0.0037,0.0045,0.0054,-0.0178,-0.0178,-0.0178,-0.0178,0,0.0144,0.0181,0.0213,0.0272,0.0351,0.044,0.0562,0.0662,0.0775,0.0866,0.09,0.0823,0.0644,0.0416,0.026,0.0107,0.0015,-0.001,0.0036,-0.015,-0.0108,-0.0084,-0.0074,-0.0177,-0.0177,-0.0177,-0.0177,-0.0177,0.0149,0.02,0.0229,0.0308,0.0375,0.0508,0.0633,0.073,0.0866,0.0926,0.0807,0.0688,0.048,0.0224,0.0115,0.0083,0.0037,-0.0051,-0.0055,-0.0059,-0.0022,0.0026,-0.0011,-0.001,-0.0009,-0.0009,-0.0008,0,0.0142,0.0212,0.0257,0.0338,0.0381,0.0491,0.0684,0.0768,0.0928,0.0849,0.0757,0.0469,0.026,0.012,0.0059,0.0013,-0.0015,0.0003,-0.0089,-0.0093,-0.0096,-0.0062,-0.0061,-0.006,-0.0059,-0.0058,0,0,0.0121,0.0164,0.0217,0.0299,0.0398,0.0551,0.0712,0.0882,0.089,0.0785,0.0662,0.0302,0.0195,0.0104,-0.0007,-0.0004,0.0,0.0017,0.0041,-0.0064,-0.0063,-0.0171,-0.0128,0,0,0,0,0]}],[{"header":{"parameterUnit":"m.s-1","parameterCategory":2,"la1":30.2991,"la2":30.254,"lo1":-89.0895,"lo2":-89.0444,"dy":0.0017,"dx":0.0017,"nx":28,"ny":28,"refTime":"2024-06-28T03:00:00:Z","depth":"4","parameterNumber":2,"parameterNumberName":"U-component_of_CURRENTS"},"data":[0,0,0,0,0,0,0,0,0,0,0,0,0,0,0,0,0,0,0,0,0,0,0,0,0,0,0,0,0,0,0,0,0,0,0,0,0,0,0,0,0,0,0,0,0,0,0,0,0,0,0,0,0,0,0,0,0,0,-0.0796,-0.0795,0,-0.0771,-0.0772,-0.0772,-0.0768,-0.0768,-0.0767,-0.0767,-0.0815,-0.0817,-0.0819,0,0,0,0,0,0,0,0,0,0,0,0,0,-0.0785,-0.0786,-0.0796,-0.0795,-0.0794,-0.0771,-0.0772,-0.0772,-0.0768,-0.0768,-0.0767,-0.0767,-0.0815,-0.0817,-0.0819,0,0,0,0,0,0,0,0,0,0,0,0,0,-0.0785,-0.0786,-0.0796,-0.0784,-0.0782,-0.0771,-0.0772,-0.0772,-0.0768,-0.0768,-0.0767,-0.0767,-0.0814,-0.0817,-0.0819,-0.0847,0,0,-0.0827,-0.0828,0,0,0,0,0,0,0,0,-0.0785,-0.0786,-0.0787,-0.0785,-0.0783,-0.0766,-0.0785,-0.0798,-0.0769,-0.0781,-0.0767,-0.0766,-0.0801,-0.0805,-0.0811,-0.0849,-0.0851,-0.0827,-0.0828,-0.0829,-0.083,0,0,0,0,0,0,0,-0.0785,-0.0787,-0.0793,-0.0786,-0.0783,-0.0761,-0.0762,-0.0787,-0.0802,-0.078,-0.0778,-0.0764,-0.0802,-0.0808,-0.0812,-0.0852,-0.0827,-0.0829,-0.0831,-0.0832,-0.0924,-0.0925,0,0,0,0,0,0,-0.0778,-0.0787,-0.0794,-0.0792,-0.0774,-0.0761,-0.0762,-0.0778,-0.08,-0.08,-0.0765,-0.0764,-0.0804,-0.0809,-0.0814,-0.0867,-0.0829,-0.0832,-0.0833,-0.0923,-0.0924,-0.0925,0,0,0,0,0,0,-0.0778,-0.078,-0.0795,-0.0781,-0.0781,-0.0762,-0.0779,-0.0777,-0.078,-0.0786,-0.0789,-0.0768,-0.0804,-0.081,-0.0853,-0.0868,-0.0833,-0.0835,-0.0922,-0.0923,-0.0924,-0.0962,0,0,0,0,0,0,-0.0779,-0.0781,-0.0795,-0.0782,-0.0781,-0.0784,-0.0779,-0.0777,-0.077,-0.0769,-0.079,-0.0794,-0.0804,-0.0849,-0.0855,-0.0871,-0.0837,-0.092,-0.0922,-0.0924,-0.096,-0.0965,-0.0969,0,0,0,0,0,-0.0779,-0.0786,-0.0796,-0.0796,-0.08,-0.0784,-0.0782,-0.077,-0.077,-0.0772,-0.0802,-0.0793,-0.0864,-0.0853,-0.0859,-0.0876,-0.092,-0.0922,-0.0924,-0.0958,-0.0964,-0.0969,0,0,0,0,0,0,-0.0784,-0.0785,-0.0796,-0.0805,-0.0796,-0.078,-0.0785,-0.0772,-0.0796,-0.0808,-0.0817,-0.0824,-0.0867,-0.0867,-0.0854,-0.0907,-0.0886,-0.0889,-0.0909,-0.0915,-0.0919,-0.0898,-0.0839,0,0,0,0,0,-0.0794,-0.0806,-0.0798,-0.0806,-0.0813,-0.0805,-0.0799,-0.0789,-0.0799,-0.0807,-0.0827,-0.0853,-0.0882,-0.0894,-0.0923,-0.0954,-0.0945,-0.0965,-0.097,-0.0974,-0.0961,-0.0965,-0.0969,-0.0932,-0.0932,-0.0932,0,0,-0.0784,-0.0798,-0.0796,-0.0808,-0.0817,-0.0822,-0.0803,-0.0799,-0.0803,-0.0812,-0.0854,-0.0878,-0.0897,-0.0939,-0.0955,-0.0938,-0.0985,-0.0976,-0.098,-0.0964,-0.0968,-0.0971,-0.0974,-0.0933,-0.0933,-0.0933,0,0,-0.0784,-0.0808,-0.0824,-0.0829,-0.0837,-0.0832,-0.083,-0.0831,-0.084,-0.0872,-0.0886,-0.0915,-0.0961,-0.0972,-0.0983,-0.1027,-0.1016,-0.1039,-0.1039,-0.1044,-0.1047,-0.1049,-0.1062,-0.1064,-0.1032,-0.1032,-0.1032,0,-0.0788,-0.0807,-0.0819,-0.0846,-0.0846,-0.084,-0.0847,-0.0858,-0.0868,-0.0886,-0.0891,-0.095,-0.0972,-0.0999,-0.1021,-0.1035,-0.1041,-0.1018,-0.1049,-0.1051,-0.1053,-0.1065,-0.1067,-0.1034,-0.1034,-0.1034,-0.1033,0,-0.0795,-0.0819,-0.0833,-0.0871,-0.0873,-0.0876,-0.0887,-0.0904,-0.0918,-0.0926,-0.0965,-0.099,-0.1019,-0.103,-0.1045,-0.1066,-0.107,-0.1062,-0.1033,-0.1058,-0.107,-0.1072,-0.1037,-0.1036,-0.1036,-0.1035,0,0,-0.0793,-0.083,-0.0842,-0.0856,-0.0886,-0.0882,-0.0915,-0.093,-0.0943,-0.0971,-0.0993,-0.1037,-0.1047,-0.1058,-0.1068,-0.1063,-0.1097,-0.1071,-0.1071,-0.1079,-0.1121,-0.1013,-0.1004,-0.1101,-0.1101,-0.1101,-0.1131,0,-0.0804,-0.0844,-0.0859,-0.088,-0.0893,-0.0909,-0.0928,-0.0946,-0.097,-0.1001,-0.102,-0.1054,-0.1058,-0.1075,-0.1077,-0.1101,-0.1102,-0.109,-0.1097,-0.1097,-0.0994,-0.1002,-0.1101,-0.1133,-0.1133,-0.1133,-0.1134,0,-0.0814,-0.0836,-0.0858,-0.0878,-0.0889,-0.0899,-0.0926,-0.0941,-0.0987,-0.101,-0.1042,-0.107,-0.1099,-0.1087,-0.1112,-0.1111,-0.1121,-0.1117,-0.1118,-0.0997,-0.0991,-0.1097,-0.1137,-0.1137,-0.1137,-0.1136,-0.1136,0,-0.08,-0.0837,-0.0848,-0.0857,-0.0878,-0.0897,-0.0915,-0.0951,-0.0967,-0.1023,-0.1047,-0.1081,-0.1111,-0.1117,-0.1133,-0.1138,-0.114,-0.115,-0.1052,-0.1046,-0.1119,-0.1116,-0.1148,-0.1148,-0.1148,-0.1148,-0.1148,0,-0.0798,-0.0813,-0.0841,-0.085,-0.0851,-0.0882,-0.0898,-0.0926,-0.0967,-0.0985,-0.1052,-0.1056,-0.112,-0.1138,-0.114,-0.1095,-0.1153,-0.1042,-0.1036,-0.1139,-0.1137,-0.1122,-0.1119,-0.1149,-0.1149,-0.1148,-0.1148,0,-0.0777,-0.08,-0.081,-0.0838,-0.0845,-0.085,-0.0889,-0.0895,-0.0946,-0.0975,-0.1,-0.1065,-0.1079,-0.1109,-0.1125,-0.1094,-0.1063,-0.1029,-0.1139,-0.1142,-0.0972,-0.0971,-0.0937,-0.0933,-0.093,-0.0927,-0.0925,0,-0.0772,-0.0768,-0.0798,-0.0786,-0.0799,-0.0815,-0.0818,-0.0876,-0.0892,-0.0953,-0.0963,-0.1007,-0.1039,-0.0969,-0.1012,-0.0997,-0.0977,-0.0974,-0.0962,-0.0947,-0.0946,-0.095,-0.0953,-0.092,-0.0919,-0.0918,-0.0917,0,-0.0735,-0.0749,-0.0762,-0.0744,-0.0746,-0.0734,-0.0765,-0.0774,-0.0835,-0.0899,-0.088,-0.0879,-0.089,-0.0895,-0.0888,-0.0874,-0.0983,-0.094,-0.0947,-0.0936,-0.0926,-0.0929,-0.0936,-0.0906,-0.0908,-0.0909,-0.0909,0,-0.0712,-0.0707,-0.0717,-0.0696,-0.0673,-0.0637,-0.0674,-0.0681,-0.0703,-0.079,-0.0776,-0.0809,-0.0867,-0.0829,-0.0815,-0.0797,-0.079,-0.0769,-0.0785,-0.0798,-0.0736,-0.0702,-0.0595,0,0,0,0,0,-0.068,-0.0668,-0.0651,-0.0611,-0.0577,-0.0561,-0.0611,-0.0656,-0.0743,-0.0695,-0.0731,-0.0722,-0.0699,-0.0717,-0.067,-0.0769,-0.0806,-0.0713,-0.0794,-0.0844,-0.0857,-0.0795,0,0,0,0,0,0,-0.0654,-0.0649,-0.0647,-0.0535,-0.0471,-0.043,-0.0456,-0.0521,-0.051,-0.0598,-0.0585,-0.0643,-0.0636,-0.0687,-0.0633,-0.0643,-0.0674,-0.074,-0.0737,-0.0837,-0.0848,-0.0859,-0.08,0,0,0,0,0]},{"header":{"parameterUnit":"m.s-1","parameterCategory":2,"la1":30.2991,"la2":30.254,"lo1":-89.0895,"lo2":-89.0444,"dy":0.0017,"dx":0.0017,"nx":28,"ny":28,"refTime":"2024-06-28T03:00:00:Z","depth":"4","parameterNumber":3,"parameterNumberName":"V-component_of_CURRENTS"},"data":[0,0,0,0,0,0,0,0,0,0,0,0,0,0,0,0,0,0,0,0,0,0,0,0,0,0,0,0,0,0,0,0,0,0,0,0,0,0,0,0,0,0,0,0,0,0,0,0,0,0,0,0,0,0,0,0,0,0,-0.0081,-0.008,0,-0.0076,-0.0077,-0.0077,-0.0079,-0.0078,-0.0078,-0.0077,-0.0068,-0.0068,-0.0068,0,0,0,0,0,0,0,0,0,0,0,0,0,-0.0075,-0.0076,-0.0081,-0.008,-0.0079,-0.0076,-0.0077,-0.0078,-0.0079,-0.0078,-0.0078,-0.0077,-0.0068,-0.0068,-0.0068,0,0,0,0,0,0,0,0,0,0,0,0,0,-0.0083,-0.0077,-0.0081,-0.0074,-0.0072,-0.0076,-0.0077,-0.0078,-0.0079,-0.0078,-0.0077,-0.0077,-0.0068,-0.0068,-0.0069,-0.0091,0,0,-0.007,-0.007,0,0,0,0,0,0,0,0,-0.0082,-0.0084,-0.0076,-0.0074,-0.0073,-0.007,-0.0071,-0.0079,-0.008,-0.0085,-0.0077,-0.0076,-0.0064,-0.0064,-0.0077,-0.009,-0.009,-0.007,-0.007,-0.0071,-0.0071,0,0,0,0,0,0,0,-0.0082,-0.0084,-0.0087,-0.0075,-0.0073,-0.0065,-0.0066,-0.0073,-0.0086,-0.0085,-0.0083,-0.007,-0.0064,-0.0077,-0.0077,-0.009,-0.007,-0.0071,-0.0071,-0.0071,-0.0133,-0.0135,0,0,0,0,0,0,-0.0068,-0.0084,-0.0087,-0.0086,-0.0066,-0.0065,-0.0067,-0.0079,-0.0086,-0.0084,-0.0071,-0.007,-0.0076,-0.0076,-0.0076,-0.0098,-0.0071,-0.0071,-0.0071,-0.0132,-0.0134,-0.0135,0,0,0,0,0,0,-0.0069,-0.007,-0.0087,-0.0077,-0.0077,-0.0065,-0.0079,-0.0079,-0.009,-0.0074,-0.0073,-0.008,-0.0076,-0.0076,-0.0087,-0.0097,-0.0071,-0.0072,-0.013,-0.0132,-0.0134,-0.0144,0,0,0,0,0,0,-0.0069,-0.0071,-0.0068,-0.0077,-0.0077,-0.0085,-0.0079,-0.0079,-0.0079,-0.0078,-0.0082,-0.008,-0.0075,-0.0086,-0.0087,-0.0097,-0.0072,-0.0129,-0.0131,-0.0134,-0.0142,-0.0146,-0.0149,0,0,0,0,0,-0.007,-0.0078,-0.0069,-0.0068,-0.0077,-0.0085,-0.0086,-0.0078,-0.008,-0.0087,-0.0093,-0.008,-0.0103,-0.0088,-0.0089,-0.0099,-0.0127,-0.0131,-0.0133,-0.014,-0.0145,-0.0149,0,0,0,0,0,0,-0.0082,-0.0078,-0.0069,-0.0077,-0.0073,-0.0082,-0.0079,-0.0083,-0.0097,-0.0105,-0.0094,-0.0093,-0.0109,-0.0109,-0.0092,-0.0128,-0.0115,-0.0118,-0.012,-0.0124,-0.0128,-0.012,-0.0073,0,0,0,0,0,-0.0079,-0.0083,-0.0077,-0.0083,-0.008,-0.0083,-0.0082,-0.0092,-0.0101,-0.0107,-0.0098,-0.0108,-0.0125,-0.0127,-0.0137,-0.0154,-0.0137,-0.0165,-0.0169,-0.0172,-0.0169,-0.0155,-0.0156,-0.0145,-0.0145,-0.0145,0,0,-0.0085,-0.0081,-0.0083,-0.0084,-0.0083,-0.0093,-0.0083,-0.0099,-0.0114,-0.0105,-0.0115,-0.012,-0.0134,-0.0153,-0.016,-0.0151,-0.0168,-0.0176,-0.0178,-0.0173,-0.0158,-0.0159,-0.0159,-0.0147,-0.0147,-0.0146,0,0,-0.0097,-0.0097,-0.0097,-0.0106,-0.0105,-0.0107,-0.0112,-0.012,-0.0125,-0.0144,-0.0144,-0.0152,-0.0167,-0.0173,-0.0184,-0.0218,-0.019,-0.0227,-0.0233,-0.0221,-0.022,-0.022,-0.0196,-0.0193,-0.0226,-0.0226,-0.0226,0,-0.0084,-0.0107,-0.0099,-0.0111,-0.0121,-0.0114,-0.0136,-0.0143,-0.0154,-0.0163,-0.0149,-0.017,-0.0178,-0.0201,-0.0216,-0.0223,-0.0207,-0.021,-0.0222,-0.0222,-0.0221,-0.0196,-0.0193,-0.0227,-0.0227,-0.0227,-0.0227,0,-0.0108,-0.0125,-0.0132,-0.0141,-0.0154,-0.0177,-0.0184,-0.0196,-0.0197,-0.0199,-0.021,-0.0205,-0.0215,-0.0223,-0.0232,-0.0241,-0.0227,-0.0227,-0.0202,-0.0222,-0.0196,-0.0192,-0.0228,-0.0228,-0.0227,-0.0227,0,0,-0.0091,-0.0129,-0.0136,-0.0158,-0.0183,-0.0203,-0.0228,-0.0244,-0.0264,-0.0248,-0.0261,-0.0271,-0.0251,-0.0262,-0.0256,-0.0243,-0.023,-0.0235,-0.0234,-0.0196,-0.0189,-0.0191,-0.0187,-0.0227,-0.0226,-0.0226,-0.0168,0,-0.0103,-0.014,-0.0157,-0.0206,-0.0235,-0.0254,-0.0272,-0.0299,-0.0306,-0.0311,-0.0295,-0.0306,-0.027,-0.028,-0.0254,-0.0236,-0.0223,-0.0245,-0.0188,-0.0186,-0.0173,-0.0184,-0.0225,-0.0166,-0.0165,-0.0164,-0.0164,0,-0.0129,-0.0157,-0.02,-0.0258,-0.0268,-0.0291,-0.0342,-0.036,-0.0373,-0.0377,-0.0362,-0.0351,-0.0321,-0.0304,-0.0229,-0.024,-0.0222,-0.0199,-0.0196,-0.0191,-0.0183,-0.0145,-0.0158,-0.0158,-0.0159,-0.0159,-0.0159,0,-0.0146,-0.0197,-0.0232,-0.0257,-0.0305,-0.0333,-0.0352,-0.0384,-0.0398,-0.0419,-0.0418,-0.0379,-0.034,-0.0304,-0.0238,-0.0242,-0.0159,-0.016,-0.0141,-0.0139,-0.0147,-0.0148,-0.0136,-0.0136,-0.0137,-0.0137,-0.0137,0,-0.0163,-0.0206,-0.0247,-0.0274,-0.0329,-0.036,-0.0405,-0.0424,-0.0438,-0.0457,-0.0436,-0.0426,-0.0337,-0.0281,-0.0246,-0.016,-0.0156,-0.0138,-0.0127,-0.0154,-0.0157,-0.0144,-0.0146,-0.0135,-0.0135,-0.0136,-0.0136,0,-0.0189,-0.0203,-0.0263,-0.0317,-0.0338,-0.0385,-0.0429,-0.046,-0.0458,-0.0482,-0.0488,-0.043,-0.0355,-0.027,-0.02,-0.015,-0.0105,-0.0094,-0.0115,-0.0106,-0.0093,-0.0096,-0.0058,-0.0057,-0.0057,-0.0057,-0.0056,0,-0.0197,-0.0231,-0.0299,-0.0331,-0.0355,-0.0418,-0.0457,-0.0477,-0.0501,-0.0493,-0.0497,-0.0431,-0.0395,-0.0251,-0.0183,-0.0094,-0.0095,-0.0062,-0.009,-0.0093,-0.0086,-0.0089,-0.0093,-0.0056,-0.0056,-0.0056,-0.0056,0,-0.0231,-0.0255,-0.0296,-0.0361,-0.0408,-0.0469,-0.0517,-0.0527,-0.0549,-0.054,-0.0512,-0.0463,-0.0361,-0.026,-0.0173,-0.0127,-0.0075,-0.0059,-0.006,-0.0086,-0.009,-0.0084,-0.0088,-0.0055,-0.0055,-0.0055,-0.0055,0,-0.0257,-0.0294,-0.0336,-0.0397,-0.0451,-0.0503,-0.053,-0.0552,-0.0564,-0.0544,-0.0543,-0.046,-0.0399,-0.028,-0.0223,-0.0145,-0.0137,-0.0127,-0.0124,-0.0124,-0.0165,-0.0182,-0.0163,0,0,0,0,0,-0.0287,-0.0325,-0.0372,-0.0434,-0.0482,-0.0514,-0.0562,-0.0579,-0.0593,-0.0578,-0.0556,-0.0492,-0.0378,-0.0322,-0.0244,-0.0223,-0.0125,-0.0132,-0.0112,-0.0049,-0.005,-0.0088,0,0,0,0,0,0,-0.0308,-0.0353,-0.0376,-0.0444,-0.0486,-0.0548,-0.0577,-0.059,-0.0572,-0.0568,-0.0496,-0.0478,-0.0352,-0.0413,-0.024,-0.0219,-0.0199,-0.0076,-0.0075,-0.0048,-0.0049,-0.005,-0.009,0,0,0,0,0]}]]